Traverse City, MI

10:11 AM EDT on April 29, 2017 (GMT -0400)
Cherry Capital

Weather History for KTVC - March, 2013

Change the Weather History Date:

Wednesday, March 27, 2013

  Actual Average Record
Temperature  
Mean Temperature 35 °F 35 °F  
Max Temperature 42 °F 45 °F 81 °F (1945)
Min Temperature 27 °F 25 °F -7 °F (1965)
Degree Days  
Heating Degree Days 30 30  
Month to date heating degree days 997 946  
Since 1 July heating degree days 5843 6286  
Cooling Degree Days 0 0  
Month to date cooling degree days 0 0  
Year to date cooling degree days 0 0  
Moisture  
Dew Point 25 °F    
Average Humidity 64    
Maximum Humidity 78    
Minimum Humidity 49    
Precipitation  
Precipitation 0.00 in 0.06 in 0.96 in (1991)
Month to date precipitation 1.44 1.58  
Year to date precipitation 4.98 5.90  
Snow  
Snow 0.00 in - - ()
Snow Depth 1.00 in    
Sea Level Pressure  
Sea Level Pressure 30.19 in    
Wind  
Wind Speed 9 mph (NW)    
Max Wind Speed 18 mph    
Max Gust Speed 23 mph    
Visibility 10 miles    
Events      
T = Trace of Precipitation, MM = Missing Value Source: NWS Daily Summary

Daily Weather History Graph

Daily Weather History Graph

Search for Another Location

Airport or City:

Trip Planner

Search our weather history database for the weather conditions in past years. The results will help you decide how hot, cold, wet, or windy it might be!

Date:

Astronomy

Mar. 27, 2013 Rise Set
Actual Time 7:31 AM EDT 8:03 PM EDT
Civil Twilight 7:02 AM EDT 8:33 PM EDT
Nautical Twilight 6:27 AM EDT 9:08 PM EDT
Astronomical Twilight 5:52 AM EDT 9:44 PM EDT
Moon 8:50 PM EDT (3/27) 7:20 AM EDT (3/27)
Length of Visible Light 13h 30m
Length of Day
12h 32m
Full, 100% of the Moon is Illuminated
Mar 27
Full
Apr 3
Last Quarter
Apr 10
New
Apr 18
First Quarter
Apr 25
Full

Hourly Weather History & Observations

Time (EDT) Temp. Windchill Dew Point Humidity Pressure Visibility Wind Dir Wind Speed Gust Speed Precip Events Conditions
12:53 AM 33.1 °F 26.1 °F 24.1 °F 70% 30.17 in 10.0 mi WNW 8.1 mph - N/A   Mostly Cloudy
1:53 AM 34.0 °F 25.5 °F 25.0 °F 70% 30.16 in 10.0 mi NW 11.5 mph - N/A   Mostly Cloudy
2:53 AM 32.0 °F 24.2 °F 24.1 °F 73% 30.15 in 10.0 mi WNW 9.2 mph - N/A   Clear
3:53 AM 32.0 °F 23.0 °F 24.1 °F 73% 30.15 in 10.0 mi WNW 11.5 mph - N/A   Clear
4:53 AM 32.0 °F 26.4 °F 24.1 °F 73% 30.15 in 10.0 mi West 5.8 mph - N/A   Mostly Cloudy
5:53 AM 30.9 °F 23.5 °F 24.1 °F 76% 30.16 in 10.0 mi West 8.1 mph - N/A   Scattered Clouds
6:53 AM 28.0 °F 21.7 °F 23.0 °F 81% 30.17 in 10.0 mi West 5.8 mph - N/A   Scattered Clouds
7:53 AM 28.9 °F 25.2 °F 23.0 °F 78% 30.17 in 10.0 mi Variable 3.5 mph - N/A   Scattered Clouds
8:53 AM 32.0 °F 24.8 °F 26.1 °F 79% 30.19 in 10.0 mi NW 8.1 mph - N/A   Scattered Clouds
9:46 AM 35.6 °F 28.0 °F 28.4 °F 75% 30.17 in 10.0 mi WNW 10.4 mph - N/A   Mostly Cloudy
9:53 AM 36.0 °F 28.0 °F 28.0 °F 73% 30.19 in 10.0 mi WNW 11.5 mph - N/A   Mostly Cloudy
10:53 AM 37.0 °F 29.8 °F 28.0 °F 70% 30.19 in 10.0 mi NW 10.4 mph - N/A   Mostly Cloudy
11:53 AM 39.0 °F 31.4 °F 26.1 °F 60% 30.20 in 10.0 mi NW 12.7 mph - N/A   Scattered Clouds
12:53 PM 39.9 °F 32.9 °F 23.0 °F 51% 30.20 in 10.0 mi NW 11.5 mph 20.7 mph N/A   Mostly Cloudy
1:53 PM 41.0 °F 33.9 °F 26.1 °F 55% 30.20 in 10.0 mi NW 12.7 mph 17.3 mph N/A   Scattered Clouds
2:53 PM 41.0 °F 32.5 °F 25.0 °F 53% 30.20 in 10.0 mi NW 17.3 mph 20.7 mph N/A   Mostly Cloudy
3:53 PM 42.1 °F 33.9 °F 25.0 °F 51% 30.19 in 10.0 mi NW 17.3 mph 20.7 mph N/A   Scattered Clouds
4:53 PM 42.1 °F 34.5 °F 24.1 °F 49% 30.20 in 10.0 mi NW 15.0 mph 23.0 mph N/A   Scattered Clouds
5:53 PM 42.1 °F 36.6 °F 25.0 °F 51% 30.20 in 10.0 mi NW 9.2 mph - N/A   Scattered Clouds
6:53 PM 41.0 °F 34.3 °F 24.1 °F 51% 30.20 in 10.0 mi NW 11.5 mph - N/A   Scattered Clouds
7:53 PM 39.0 °F 32.8 °F 25.0 °F 57% 30.21 in 10.0 mi NW 9.2 mph - N/A   Scattered Clouds
8:53 PM 37.0 °F 33.3 °F 25.0 °F 62% 30.22 in 10.0 mi NW 4.6 mph - N/A   Scattered Clouds
9:53 PM 36.0 °F 30.3 °F 25.0 °F 64% 30.23 in 10.0 mi WNW 6.9 mph - N/A   Scattered Clouds
10:53 PM 35.1 °F 29.3 °F 26.1 °F 70% 30.24 in 10.0 mi NW 6.9 mph - N/A   Clear
11:53 PM 33.1 °F - 26.1 °F 75% 30.24 in 10.0 mi Calm Calm - N/A   Overcast